TimeEDT,TemperatureF,Dew PointF,Humidity,Sea Level PressureIn,VisibilityMPH,Wind Direction,Wind SpeedMPH,Gust SpeedMPH,PrecipitationIn,Events,Conditions,WindDirDegrees,DateUTC
1:51 AM,43.9,34.9,71,30.30,10.0,Calm,Calm,-,0.00,Rain,Light Rain,0,2012-10-14 05:51:00
2:51 AM,43.9,36.9,76,30.24,10.0,SE,4.6,-,0.00,Rain,Light Rain,140,2012-10-14 06:51:00
3:51 AM,41.9,39.9,93,30.25,10.0,SE,3.5,-,0.02,,Overcast,130,2012-10-14 07:51:00
4:51 AM,41.9,38.8,89,30.22,8.0,SSE,3.5,-,0.01,Rain,Light Rain,150,2012-10-14 08:51:00
5:51 AM,41.9,39.9,93,30.19,2.5,SSE,6.9,-,0.09,Rain,Rain,150,2012-10-14 09:51:00
6:07 AM,42.8,39.2,87,30.18,3.0,Variable,3.5,-,0.04,Rain,Light Rain,0,2012-10-14 10:07:00
6:51 AM,43.0,41.0,93,30.16,5.0,SE,4.6,-,0.11,Rain,Light Rain,130,2012-10-14 10:51:00
7:26 AM,44.6,42.8,93,30.14,3.0,SSE,3.5,-,0.07,Rain,Light Rain,150,2012-10-14 11:26:00
7:51 AM,43.9,41.9,93,30.15,6.0,Variable,3.5,-,0.10,Rain,Light Rain,0,2012-10-14 11:51:00
8:10 AM,44.6,42.8,93,30.14,2.5,SSE,3.5,-,0.00,Rain,Light Rain,150,2012-10-14 12:10:00
8:21 AM,44.6,42.8,93,30.14,4.0,SE,3.5,-,0.00,Rain,Light Rain,130,2012-10-14 12:21:00
8:32 AM,44.6,42.8,93,30.14,3.0,SE,3.5,-,0.01,Rain,Light Rain,130,2012-10-14 12:32:00
8:51 AM,45.0,43.9,96,30.14,6.0,Variable,3.5,-,0.01,,Mostly Cloudy,0,2012-10-14 12:51:00
9:02 AM,46.4,44.6,93,30.12,7.0,SE,3.5,-,0.00,Rain,Light Rain,140,2012-10-14 13:02:00
9:25 AM,46.4,44.6,93,30.12,10.0,Variable,3.5,-,0.00,,Mostly Cloudy,0,2012-10-14 13:25:00
9:34 AM,46.4,46.4,100,30.12,10.0,SE,3.5,-,0.00,,Mostly Cloudy,130,2012-10-14 13:34:00
9:51 AM,47.8,45.9,93,30.13,10.0,SE,3.5,-,0.01,Rain,Light Rain,140,2012-10-14 13:51:00
10:51 AM,52.0,48.9,89,30.12,10.0,Variable,3.5,-,0.00,,Overcast,0,2012-10-14 14:51:00
11:51 AM,54.0,50.0,86,30.11,10.0,Variable,4.6,-,N/A,,Overcast,0,2012-10-14 15:51:00
12:51 PM,54.9,50.9,86,30.08,10.0,Variable,3.5,-,0.01,,Overcast,0,2012-10-14 16:51:00
1:34 PM,55.4,51.8,88,30.06,10.0,Variable,3.5,-,0.01,Rain,Light Rain,0,2012-10-14 17:34:00
1:51 PM,54.9,50.0,84,30.06,10.0,Calm,Calm,-,0.01,Rain,Light Rain,0,2012-10-14 17:51:00
2:51 PM,56.8,50.9,80,30.03,10.0,Variable,4.6,-,0.00,,Overcast,0,2012-10-14 18:51:00
4:51 PM,63.9,52.9,67,30.01,10.0,Variable,3.5,-,N/A,,Clear,0,2012-10-14 20:51:00
5:51 PM,59.0,54.0,83,29.99,10.0,Calm,Calm,-,N/A,,Clear,0,2012-10-14 21:51:00
6:51 PM,54.9,52.9,93,30.00,10.0,Calm,Calm,-,N/A,,Clear,0,2012-10-14 22:51:00
7:51 PM,55.9,52.9,89,29.99,10.0,Variable,3.5,-,N/A,,Clear,0,2012-10-14 23:51:00
8:51 PM,57.9,52.0,81,29.98,10.0,Variable,3.5,-,N/A,,Clear,0,2012-10-15 00:51:00
9:51 PM,56.8,52.0,84,29.98,10.0,Calm,Calm,-,N/A,,Clear,0,2012-10-15 01:51:00
10:51 PM,56.8,52.0,84,29.95,10.0,Variable,3.5,-,N/A,,Clear,0,2012-10-15 02:51:00
11:51 PM,56.8,52.9,87,29.93,10.0,SSE,3.5,-,N/A,,Clear,150,2012-10-15 03:51:00